Content
SEND FEEDBACK

Daily
Averages
Monthly
Summary
United States of America

JACKSONVILLE, VERMONT


Home > North America > United States > Vermont
Elevation: 800 feet     Latitude: 42 44N     Longitude: 072 44W

WEATHER
 
SELECT A DAY
Number of Records: 199,949;   Date Range: 10/28/95 - 10/24/14
 
SHARE

PRINT THIS DATA

[ ← Previous Day ]
WEATHER ALMANAC - JULY 22, 2014
[ Next Day → ]
[ °C ]   °F
Weather ElementAverageHighLow
Temperature72.1 °F84.9 °F (2:52 pm)59 °F (5:52 am)
Dewpoint64 °F69.1 °F (5:52 pm)57.9 °F (5:52 am)
Humidity77.7 %96 % (3:52 am)48 % (2:52 pm)
Barometer30.11 in30.18 in (7:11 am)29.98 in (11:52 pm)
Wind Speed1.3 mph8.1 mph (4:52 pm)
Weather ElementAverage
Visibility9.4 mi
Wind DirectionNNE (23.5 °)

Weather ElementTotal
Precipitation---
Cooling Degree Days7 (Base 65)
Growing Degree Days22 (Base 50)
Averaged from 26 records on July 22, 2014
WEATHER CONDITIONS BREAKOUT
WIND DIRECTION BREAKOUT
WEATHER BY HOUR - JULY 22, 2014
[ °C ]   °F
Local TimeTemperatureDewpointHumidityBarometerVisibilityWind DirectionWind SpeedGust SpeedPrecipitationEventsConditions
1:52 AM63.0 °F61.0 °F93 %30.15 in10.0 miCalmMostly Cloudy
2:52 AM62.1 °F60.1 °F93 %30.15 in9.0 miCalmClear
3:52 AM60.1 °F59.0 °F96 %30.15 in9.0 miCalmClear
4:52 AM60.1 °F59.0 °F96 %30.16 in8.0 miCalmClear
5:52 AM59.0 °F57.9 °F96 %30.17 in4.0 miCalmClear
6:52 AM62.1 °F60.1 °F93 %30.17 in7.0 miCalmClear
7:11 AM63.0 °F61.0 °F93 %30.18 in8.0 miCalmScattered Clouds
7:25 AM64.0 °F61.0 °F90 %30.18 in10.0 miCalmMostly Cloudy
7:48 AM66.2 °F62.6 °F88 %30.18 in10.0 miCalmScattered Clouds
7:52 AM66.0 °F62.1 °F87 %30.18 in10.0 miCalmPartly Cloudy
8:08 AM66.9 °F62.1 °F84 %30.18 in10.0 miCalmMostly Cloudy
8:42 AM70.0 °F63.0 °F78 %30.16 in10.0 miESE (120°)3.5 mphScattered Clouds
8:52 AM71.1 °F64.0 °F78 %30.16 in10.0 miCalmScattered Clouds
10:52 AM79.0 °F66.0 °F64 %30.13 in10.0 miVariable3.5 mphClear
11:52 AM82.9 °F66.0 °F56 %30.12 in10.0 miCalmClear
12:52 PM82.0 °F64.9 °F56 %30.10 in10.0 miCalmMostly Cloudy
1:52 PM84.0 °F66.9 °F56 %30.07 in10.0 miCalmMostly Cloudy
2:52 PM84.9 °F63.0 °F48 %30.06 in10.0 miVariable4.6 mphClear
4:52 PM84.9 °F64.9 °F51 %30.03 in10.0 miWSW (240°)8.1 mphClear
5:52 PM84.0 °F69.1 °F61 %30.02 in10.0 miCalmScattered Clouds
6:52 PM82.0 °F69.1 °F65 %30.02 in10.0 miWSW (250°)3.5 mphMostly Cloudy
7:52 PM80.1 °F69.1 °F69 %30.02 in10.0 miCalmPartly Cloudy
8:52 PM73.9 °F69.1 °F85 %30.01 in10.0 miCalmClear
9:52 PM75.0 °F68.0 °F79 %30.02 in10.0 miVariable3.5 mphClear
10:52 PM75.0 °F68.0 °F79 %30.00 in10.0 miVariable3.5 mphClear
11:52 PM72.0 °F68.0 °F87 %29.98 in10.0 miVariable3.5 mphClear
Hourly data recorded from KAQW, located miles away from Jacksonville, Vermont







STORIES FROM OUR PARTNERS